Theta_e
349 349 348 349 350 350 351 350 350 350 349 345 340 340 343 345 345 345 345 346 345 346 348 348 347 349 349 349 350 348 343 343 343 343 344 344 345 347 347 349 351 352
349 349 347 347 349 349 350 349 349 348 347 345 343 342 343 346 346 345 345 345 344 345 348 347 345 348 349 349 350 348 344 344 344 343 345 345 346 349 349 349 350 351
347 347 346 345 346 347 348 348 347 347 345 344 345 345 344 346 347 347 347 346 346 345 345 346 345 346 347 347 348 348 344 344 345 344 344 346 347 349 350 349 350 351
343 343 345 344 344 345 345 346 345 344 343 342 343 344 345 347 348 349 350 350 350 348 345 344 345 344 344 344 345 346 345 344 346 346 344 345 346 348 349 349 350 351
339 341 343 343 343 343 343 342 342 340 339 339 340 341 344 347 349 351 352 351 351 351 347 343 344 344 343 343 343 344 344 343 345 346 345 345 345 346 347 349 350 351
337 339 340 340 339 340 341 341 340 339 338 339 339 339 341 343 347 350 351 350 350 350 348 343 342 343 343 343 343 343 344 344 344 344 344 345 345 345 345 346 349 351
336 337 337 337 337 337 339 339 340 340 339 339 338 338 339 340 342 346 347 349 349 348 347 344 341 341 342 342 342 342 342 343 344 344 343 344 344 344 344 344 346 350
334 334 334 335 335 336 337 337 339 340 340 341 340 339 340 340 341 342 343 345 347 346 345 343 341 340 339 340 340 340 340 340 342 343 343 343 343 342 342 342 343 345
340 337 335 335 335 335 336 336 336 338 339 341 340 340 342 342 342 342 342 343 344 345 344 342 341 339 338 338 338 338 338 338 339 340 341 341 341 340 340 340 341 341
344 342 340 338 337 336 335 336 337 340 343 343 341 341 342 343 344 344 343 343 343 343 343 342 340 338 338 337 336 336 336 336 337 338 338 338 337 337 337 338 340 340
344 344 343 343 342 341 338 337 338 342 347 348 347 345 343 344 346 346 345 344 341 339 340 340 340 338 338 337 335 335 335 335 336 336 337 337 336 335 335 335 336 338
348 347 347 347 347 346 343 339 338 340 343 347 349 349 347 346 347 348 348 346 343 340 339 339 339 338 338 337 336 336 336 335 335 335 335 335 334 334 334 333 333 335
350 350 351 352 351 351 349 345 342 340 340 343 347 349 349 348 347 347 348 348 346 344 342 340 339 338 337 336 335 336 336 335 334 333 333 333 333 333 333 333 333 333
352 353 354 355 353 353 354 353 349 345 344 345 347 348 349 348 348 347 347 347 347 346 345 344 342 341 339 336 335 334 334 333 332 331 331 330 331 331 332 332 332 332
354 354 355 355 355 355 355 356 354 351 349 349 349 349 349 348 348 348 347 346 345 345 346 345 345 344 342 340 338 336 334 333 331 330 329 329 329 329 329 329 329 330
353 353 354 355 355 355 355 354 354 354 353 352 351 349 348 347 348 349 349 348 346 344 344 345 345 345 344 342 341 340 339 338 335 333 330 329 328 329 329 328 328 328
351 352 352 353 353 353 354 354 353 353 353 353 352 350 347 346 347 348 349 349 349 347 345 345 345 345 344 343 343 342 342 342 342 340 337 335 332 329 328 328 328 328
350 350 351 352 352 352 353 353 353 353 353 352 352 351 349 346 346 346 347 349 349 349 347 346 345 344 343 343 343 343 343 343 344 344 344 343 341 337 333 330 329 328
351 351 351 352 352 353 353 354 354 354 353 352 352 352 350 348 345 345 346 347 349 350 349 347 346 345 344 343 343 344 345 345 345 345 346 347 347 346 344 341 339 337
352 352 352 352 352 352 353 353 353 353 353 353 353 352 350 348 346 345 345 347 348 349 349 348 347 346 345 344 345 345 346 346 347 347 348 348 349 349 348 348 347 345
353 353 353 352 353 353 352 352 352 352 352 352 352 352 350 349 346 346 345 346 348 349 350 350 349 347 346 345 346 346 347 347 348 348 349 349 350 350 350 350 349 348
349 351 352 351 351 351 351 351 352 351 352 352 352 352 352 351 349 348 347 346 346 348 350 352 352 350 348 347 347 347 348 348 349 350 350 351 351 351 351 350 350 349
343 346 348 349 347 347 348 349 350 350 350 351 352 352 353 353 352 350 350 349 348 348 349 352 353 353 352 352 351 351 351 351 351 352 352 352 352 351 351 351 351 350
335 338 341 343 342 341 341 343 345 347 347 348 349 350 351 352 352 352 352 352 351 350 350 351 353 354 353 353 352 352 351 351 351 351 351 352 352 352 352 352 352 352
329 332 333 334 334 332 332 334 337 339 342 344 346 348 349 349 350 351 351 352 352 352 352 352 353 353 354 353 352 351 351 351 351 351 352 352 353 353 353 353 353 352
325 327 325 323 324 324 325 327 328 331 334 337 340 343 346 348 349 349 350 351 352 352 352 352 352 352 352 352 352 352 353 353 353 353 353 353 353 353 353 352 351 352
Wind_Speed
24 22 22 21 21 20 18 18 17 15 15 15 14 13 12 11 12 13 13 13 13 13 12 11 10 10 9 8 8 8 8 8 9 9 9 9 10 10 10 10 9 7
25 23 22 21 22 22 20 19 18 16 15 13 13 13 13 12 11 12 12 13 12 12 12 11 10 10 10 9 8 8 8 8 9 9 8 8 9 10 9 10 9 7
26 24 23 21 22 23 21 19 18 17 15 14 14 13 13 13 12 11 11 12 11 10 11 11 11 10 10 9 9 9 8 8 9 10 9 9 9 10 10 10 9 7
27 25 24 22 20 21 21 20 19 18 16 16 15 14 12 13 12 12 12 12 10 10 11 12 12 11 11 11 11 11 9 9 10 10 10 9 10 10 10 10 9 7
27 25 24 22 20 20 20 19 20 19 18 17 16 15 14 13 13 13 13 14 12 12 12 13 13 12 12 12 12 12 11 10 11 11 11 10 10 10 10 9 9 9
26 25 24 23 21 20 19 19 19 19 18 17 17 17 16 15 15 15 16 15 14 14 14 14 14 14 14 13 13 13 13 12 12 12 12 11 10 10 9 10 11 10
25 25 24 23 22 22 21 19 19 19 18 18 17 18 17 17 16 16 17 16 15 15 15 15 15 15 15 14 14 14 13 13 13 14 13 12 11 10 10 10 11 12
24 24 24 24 23 23 22 21 20 19 19 18 18 18 18 18 17 16 16 17 16 16 16 16 15 15 14 15 15 14 14 14 14 15 15 14 13 13 12 11 12 13
23 23 24 24 24 24 23 22 21 20 19 20 20 19 19 20 19 17 17 17 17 17 17 17 16 15 14 15 15 15 15 15 15 15 15 16 16 15 13 12 13 14
23 23 23 24 24 24 23 22 21 20 19 19 20 20 20 21 21 19 19 19 18 18 17 17 18 18 17 16 16 16 16 15 16 16 16 16 16 15 13 12 13 13
23 23 23 23 23 23 23 22 21 20 19 19 20 20 20 21 21 21 20 21 21 20 18 18 18 19 19 18 17 17 16 16 16 16 17 18 17 15 14 14 14 14
23 22 22 22 22 22 22 23 23 22 21 21 21 21 21 21 21 22 22 22 21 20 20 19 18 19 20 20 19 18 17 16 16 16 16 18 18 17 16 16 15 15
24 23 22 22 22 21 21 22 23 24 23 23 23 23 23 23 23 23 23 24 23 21 20 19 18 18 19 20 20 19 19 18 17 17 16 17 17 17 17 17 17 16
25 24 24 24 23 22 22 22 23 25 25 25 25 25 25 24 23 24 24 25 25 24 21 19 19 18 18 19 20 20 21 20 20 19 18 18 18 18 18 18 18 18
24 24 24 25 25 25 24 23 23 24 26 27 26 27 27 26 25 25 25 26 26 25 23 21 21 20 19 18 18 18 20 21 21 22 22 21 20 19 19 19 19 18
23 23 23 25 25 25 25 25 24 24 26 27 27 27 28 27 26 26 28 29 28 27 26 25 23 22 20 19 18 17 17 18 20 21 22 23 23 22 21 21 20 20
20 21 22 23 24 24 24 25 26 26 27 28 28 28 28 27 26 27 28 30 31 30 29 29 27 25 22 21 20 19 18 18 18 19 20 22 23 24 24 23 23 22
17 18 19 20 21 22 22 24 25 25 26 27 28 29 29 28 27 27 27 29 31 31 31 31 30 28 25 23 22 21 21 21 21 20 20 20 21 22 23 23 23 23
14 15 15 16 17 18 21 22 23 24 25 26 26 28 29 29 28 27 26 28 30 32 32 32 32 30 28 26 23 21 21 22 23 23 23 22 21 20 20 20 21 21
12 13 13 13 14 16 18 19 21 22 22 24 25 27 28 29 29 28 27 27 28 30 32 32 32 31 30 28 27 25 23 23 24 24 25 25 24 23 22 22 21 21
10 11 12 12 13 14 16 17 17 18 19 20 21 23 26 28 29 29 29 28 28 28 27 27 28 29 29 28 28 28 27 26 26 26 27 28 28 28 28 27 26 26
8 9 10 9 10 11 13 15 16 16 16 17 17 18 20 24 27 29 30 30 30 29 26 24 23 23 25 25 26 27 26 26 26 26 27 28 29 30 31 31 31 31
5 7 9 9 8 8 10 12 14 15 16 16 16 16 16 19 22 25 27 29 30 30 29 26 23 22 22 23 23 24 24 25 26 26 27 28 29 30 31 32 32 32
4 3 5 7 6 4 5 7 9 11 13 14 15 16 16 17 18 19 22 25 27 28 29 28 26 24 24 25 25 26 28 29 31 32 33 34 35 35 35 34 34 34
6 5 4 3 2 1 1 2 3 5 7 9 12 14 16 17 17 18 19 20 22 25 26 27 27 26 27 28 30 32 33 34 36 38 39 40 39 39 37 37 37 37
6 5 5 5 4 2 2 2 2 2 3 4 6 9 12 14 16 17 17 17 19 22 24 27 29 30 30 30 31 33 35 36 37 39 40 40 40 39 39 38 37 37
Wind_Direction
200 201 201 202 205 207 206 208 212 211 205 202 203 205 202 199 206 211 213 214 211 210 210 212 213 216 215 212 213 213 205 208 214 207 207 212 208 210 214 208 205 213
203 204 205 204 204 208 211 212 217 217 212 209 206 208 205 200 206 212 214 217 217 215 216 217 216 219 222 222 222 220 211 210 213 208 208 214 211 210 210 206 208 218
205 206 208 207 204 208 212 215 221 222 219 216 214 215 209 202 204 208 210 217 222 225 227 222 221 224 227 227 227 225 219 218 220 218 214 213 212 214 213 208 207 212
208 208 210 210 206 208 211 215 219 220 219 218 217 219 216 211 210 209 215 226 232 238 238 230 226 228 229 229 229 227 226 225 228 228 224 221 220 222 221 217 210 208
212 212 212 213 212 210 211 213 214 216 216 215 216 218 219 220 219 219 225 232 236 241 242 236 231 231 232 231 230 232 231 228 228 232 234 233 233 233 231 230 228 225
214 217 217 218 218 217 216 214 212 214 217 217 216 216 217 220 223 225 230 234 238 240 242 239 235 234 234 234 233 233 233 232 231 234 237 236 238 241 239 241 242 239
214 218 221 223 223 223 223 221 218 218 219 220 221 221 221 222 225 228 231 237 242 244 245 243 240 236 234 236 238 236 235 236 236 239 241 239 237 239 241 243 244 241
220 220 222 224 224 224 226 227 226 225 223 224 225 225 225 227 231 232 232 233 238 245 248 247 247 244 238 238 241 241 240 239 239 242 245 245 244 243 243 244 246 247
223 226 226 227 226 225 225 227 229 230 230 230 229 227 226 228 233 236 235 235 236 241 244 246 250 251 247 246 246 244 244 243 244 245 247 250 253 252 249 248 251 255
217 222 226 229 231 230 229 228 228 230 233 236 237 233 229 228 229 233 236 239 240 240 241 243 246 249 251 252 251 248 247 246 247 249 250 254 257 258 256 252 252 256
215 217 219 224 228 231 232 231 229 230 233 239 243 242 240 234 231 233 235 237 240 241 241 240 242 246 248 250 252 253 251 250 250 250 251 254 259 263 264 261 257 255
218 220 221 223 226 228 230 231 229 230 233 237 241 244 246 244 240 239 238 240 243 244 244 243 243 244 246 249 251 253 254 254 255 253 252 252 257 261 265 266 264 261
219 224 224 226 228 229 229 231 230 230 232 236 240 242 245 246 246 245 245 246 249 251 251 251 251 251 250 250 251 253 255 256 256 257 255 253 255 258 262 265 265 266
220 224 224 225 229 230 230 231 231 231 232 235 239 242 244 245 247 248 250 251 252 254 256 258 260 261 259 257 256 257 258 258 259 259 258 256 256 257 260 264 265 267
220 223 225 228 230 231 231 233 233 233 232 234 238 242 244 246 247 248 251 253 253 253 254 257 260 263 265 264 264 265 265 265 264 264 263 262 261 260 261 263 265 267
222 223 227 230 231 231 233 235 237 235 234 235 237 240 243 245 246 247 248 250 253 253 252 253 255 259 263 266 268 271 273 274 273 271 270 268 267 267 266 266 268 270
223 223 225 227 229 230 233 237 239 238 237 238 239 240 242 243 244 245 247 248 250 252 253 253 253 255 259 264 267 269 271 274 276 279 278 276 273 271 270 271 272 273
219 220 220 223 225 228 233 238 241 241 242 244 243 242 242 243 241 243 246 249 249 250 252 254 255 256 258 262 265 267 268 270 272 276 279 281 281 279 277 276 275 276
204 207 210 216 222 228 234 238 241 243 245 247 245 244 246 245 240 239 243 248 249 250 251 252 255 258 260 263 264 265 268 270 271 274 276 278 281 281 281 280 279 280
185 189 194 202 211 220 226 232 236 239 241 243 244 247 249 246 239 237 240 243 245 248 250 252 255 257 259 259 260 260 262 265 268 271 273 275 277 278 278 279 279 280
185 185 189 196 204 212 218 222 227 231 235 238 241 244 247 244 240 238 239 239 241 244 248 252 254 255 254 254 254 255 256 258 261 264 267 270 273 274 275 276 277 278
196 200 204 211 220 224 226 227 230 235 240 242 242 243 244 244 242 239 238 238 239 241 244 248 248 246 245 245 246 248 250 252 254 256 260 263 267 269 270 271 272 273
189 211 218 228 240 244 241 239 238 242 247 249 251 250 249 248 246 243 242 243 243 243 244 245 247 246 243 240 240 242 245 248 251 254 258 261 264 267 268 269 269 269
109 155 202 221 238 254 259 252 247 251 255 258 261 260 259 258 256 253 252 253 253 252 250 250 252 255 254 251 250 251 253 256 259 262 265 267 268 269 269 270 271 271
81 92 108 136 185 217 288 278 266 269 271 269 267 266 265 264 264 264 264 264 263 261 259 258 257 257 257 257 256 257 259 261 264 266 268 270 271 271 271 271 272 273
88 103 108 95 84 74 63 53 35 354 316 300 283 271 265 263 264 265 266 267 268 264 262 261 259 257 257 257 257 257 259 261 263 265 268 270 272 273 273 273 274 275